TimeCST,TemperatureF,Dew PointF,Humidity,Sea Level PressureIn,VisibilityMPH,Wind Direction,Wind SpeedMPH,Gust SpeedMPH,PrecipitationIn,Events,Conditions,WindDirDegrees,DateUTC
12:52 AM,37.9,21.9,53,29.99,10.0,South,13.8,-,N/A,,Clear,170,2012-11-25 06:52:00
1:52 AM,37.9,21.9,53,29.99,10.0,South,10.4,-,N/A,,Clear,170,2012-11-25 07:52:00
2:52 AM,37.0,23.0,57,29.99,10.0,South,9.2,-,N/A,,Clear,170,2012-11-25 08:52:00
3:52 AM,37.0,23.0,57,29.97,10.0,South,12.7,-,N/A,,Clear,170,2012-11-25 09:52:00
4:52 AM,36.0,23.0,59,29.96,10.0,SSE,10.4,-,N/A,,Clear,160,2012-11-25 10:52:00
5:52 AM,36.0,24.1,62,29.96,10.0,South,10.4,-,N/A,,Clear,170,2012-11-25 11:52:00
6:52 AM,36.0,23.0,59,29.96,10.0,South,11.5,-,N/A,,Clear,170,2012-11-25 12:52:00
7:52 AM,37.9,24.1,57,29.96,10.0,SSE,11.5,-,N/A,,Clear,160,2012-11-25 13:52:00
8:52 AM,44.1,26.1,49,29.98,10.0,SSW,4.6,-,N/A,,Clear,210,2012-11-25 14:52:00
9:52 AM,51.1,28.0,41,29.99,10.0,West,3.5,-,N/A,,Clear,270,2012-11-25 15:52:00
10:52 AM,57.0,30.0,36,29.96,10.0,WSW,10.4,-,N/A,,Clear,240,2012-11-25 16:52:00
11:52 AM,57.9,30.9,36,29.94,10.0,WSW,6.9,-,N/A,,Clear,240,2012-11-25 17:52:00
12:52 PM,59.0,30.9,35,29.90,10.0,WSW,4.6,-,N/A,,Clear,250,2012-11-25 18:52:00
1:52 PM,60.1,33.1,36,29.89,10.0,SW,5.8,-,N/A,,Clear,220,2012-11-25 19:52:00
2:52 PM,62.1,34.0,35,29.88,10.0,SW,3.5,-,N/A,,Clear,230,2012-11-25 20:52:00
3:52 PM,61.0,35.1,38,29.88,10.0,Calm,Calm,-,N/A,,Clear,0,2012-11-25 21:52:00
4:52 PM,55.0,35.1,47,29.89,10.0,NNE,5.8,-,N/A,,Clear,30,2012-11-25 22:52:00
5:52 PM,50.0,34.0,54,29.90,10.0,NNE,8.1,-,N/A,,Clear,20,2012-11-25 23:52:00
6:52 PM,46.9,32.0,56,29.93,10.0,NNE,6.9,-,N/A,,Clear,30,2012-11-26 00:52:00
7:52 PM,46.9,32.0,56,29.94,10.0,NNE,4.6,-,N/A,,Clear,30,2012-11-26 01:52:00
8:52 PM,43.0,32.0,65,29.95,10.0,NE,5.8,-,N/A,,Clear,40,2012-11-26 02:52:00
9:52 PM,46.0,30.9,56,29.95,10.0,NE,9.2,-,N/A,,Clear,50,2012-11-26 03:52:00
10:52 PM,45.0,30.0,56,29.95,10.0,ENE,8.1,-,N/A,,Clear,60,2012-11-26 04:52:00
11:52 PM,41.0,28.9,62,29.96,10.0,Calm,Calm,-,N/A,,Clear,0,2012-11-26 05:52:00